Regional Weather Roundup
Issued by NWS Sterling, VA

Home | Current Version | Previous Version | Text Only | Print | Product List | Glossary Off
Versions: 1 2 3 4 5 6 7 8 9 10 11 12 13 14 15 16 17 18 19 20 21 22 23 24 25 26 27

000
ASUS41 KLWX 221511
RWRLWX

REGIONAL WEATHER ROUNDUP
NATIONAL WEATHER SERVICE BALTIMORE MD/WASHINGTON DC
1100 AM EDT TUE AUG 22 2017

Note: "FAIR" indicates few or no clouds below 12,000 feet
with no significant weather and/or obstructions to visibility.
 TC=TEMPERATURE CELSIUS

 * =Non NWS site. Station does not report precipitation (e.g. rain,
    snow, etc.), thunder, or fog.

DCZ001-MDZ009-015-VAZ040>042-051-053>054-221600-
WASHINGTON METRO

CITY           SKY/WX    TMP DP  RH WIND       PRES   REMARKS
WASHINGTON NAT MOSUNNY   84  76  76 S12       30.02F HX  93
DULLES         MOSUNNY   83  75  77 SW9       30.02S HX  90
ANDREWS AFB    SUNNY     84  74  71 SW9       30.01F HX  91
FT BELVOIR     SUNNY     83  74  73 S5        30.01F HX  90
QUANTICO       MOSUNNY   84  76  76 S8        30.02F HX  93
COLLEGE PARK*  SUNNY     84  73  69 S6        30.01S HX  90
LEESBURG*      SUNNY     86  75  70 S3        30.02F HX  95
MANASSAS*      SUNNY     85  76  74 S8        30.02F HX  94
GAITHERSBURG*  SUNNY     87  74  64 VRB5      30.03F HX  95

$$

MDZ006>007-011-014-221600-
BALTIMORE METRO

CITY           SKY/WX    TMP DP  RH WIND       PRES   REMARKS
BWI AIRPORT    MOSUNNY   85  75  72 VRB6      30.00F HX  93
MD SCIENCE CTR   N/A     85  74  69 MISG      30.02S HX  92
MARTIN STATE   MOSUNNY   82  79  89 S5        30.02F HX  93
FORT MEADE*    SUNNY     82  73  74 S6        30.03F

$$

MDZ012-015-019>023-221600-
MARYLAND EASTERN SHORE

CITY           SKY/WX    TMP DP  RH WIND       PRES   REMARKS
OCEAN CITY     MOSUNNY   83  78  85 SW10      30.05F HX  93
SALISBURY      SUNNY     86  76  71 SW15      30.04F HX  96
BAY BRIDGE AP* SUNNY     84  75  74 SW10      30.01F HX  92
CAMBRIDGE*     SUNNY     84  75  74 SW9       30.03F HX  92
EASTON*        SUNNY     86  73  66 SW13      30.05  HX  93

$$

MDZ017>025-221600-
SOUTHERN MARYLAND

CITY           SKY/WX    TMP DP  RH WIND       PRES   REMARKS
PATUXENT RIVER MOSUNNY   84  75  74 S12       30.03F HX  92
ST INIGOES     SUNNY     85  77  77 S10       30.03F HX  95
LEONARDTOWN*   SUNNY     82  72  69 S8        30.05S

$$

MDZ003>005-221600-
NORTH CENTRAL MARYLAND

CITY           SKY/WX    TMP DP  RH WIND       PRES   REMARKS
FREDERICK*     SUNNY     84  73  70 SW6       30.03F HX  91
HAGERSTOWN APT SUNNY     84  71  65 SW5       30.01F
WESTMINSTER*   SUNNY     82  73  74 SW8       30.02F

$$

MDZ501>502-221600-
WESTERN MARYLAND

CITY           SKY/WX    TMP DP  RH WIND       PRES   REMARKS
OAKLAND*       MOSUNNY   73  63  68 W13G22    30.09F
CUMBERLAND*    SUNNY     79  70  73 CALM      30.05F

$$

VAZ025>031-221600-
SHENANDOAH VALLEY

CITY           SKY/WX    TMP DP  RH WIND       PRES   REMARKS
WINCHESTER*    SUNNY     82  70  65 S8        30.01F
FRONT ROYAL*   SUNNY     82  72  69 SW8       30.02F
LURAY*         SUNNY     84  70  61 SW10      30.04F
NEW MARKET*    SUNNY     84  71  64 S8        30.03F
STAUNTON*      SUNNY     83  69  62 SW7       30.09F
WAYNESBORO*    SUNNY     84  70  63 SW6G17    30.10S

$$

WVZ021-048>050-054>055-221600-
EASTERN WEST VIRGINIA PANHANDLE

CITY           SKY/WX    TMP DP  RH WIND       PRES   REMARKS
MARTINSBURG    SUNNY     84  71  65 S8        30.00F
PETERSBURG*    MOSUNNY   87  74  63 CALM      30.02F HX  95

$$

VAZ036>039-050-221600-
CENTRAL FOOTHILLS

CITY           SKY/WX    TMP DP  RH WIND       PRES   REMARKS
CHARLOTTESVILL SUNNY     87  73  62 SW9       30.04F HX  94
CULPEPER*      SUNNY     87  74  66 SW8       30.03F HX  95
ORANGE*        SUNNY     86  72  62 S8        30.03F HX  92
GORDONSVILLE*  SUNNY     85  74  69 SW13      30.03F HX  92
WARRENTON*     SUNNY     87  72  59 S7        30.02F HX  93

$$

VAZ055>057-221600-
NORTH AND CENTRAL PIEDMONT

CITY           SKY/WX    TMP DP  RH WIND       PRES   REMARKS
FREDERICKSBRG* SUNNY     85  74  69 SW7       30.02S HX  93
STAFFORD*      SUNNY     84  76  78 S6        30.07S HX  93

$$

NCZ024-NYZ072-PAZ021-071-VAZ022-071-221600-
OTHER REGIONAL OBSERVATIONS

CITY           SKY/WX    TMP DP  RH WIND       PRES   REMARKS
NEW YORK CITY  MOSUNNY   81  73  76 VRB6      30.02S
PHILADELPHIA   MOSUNNY   84  74  71 S9        30.00S HX  91
PITTSBURGH     PTSUNNY   81  69  67 SW14G22   29.96F
ROANOKE        SUNNY     83  71  67 S7        30.13S
RICHMOND       MOSUNNY   85  75  72 S10       30.06F HX  93
RALEIGH        MOSUNNY   87  74  64 VRB5      30.11F HX  95

$$

ANZ530>537-221600-
MARINE OBSERVATIONS

STATION/POSITION TIME  TEMP    WIND        PRES
                       AIR SEA DIR/SP/G
                 (UTC) (F)     (DEG/KT/KT) (MB)
THOMAS PT LIGHT  1500   81 81  180/ 10/ 11   N/A
BALT KEY BRIDGE  1448   81     140/  3/  5 1015.9F
COVE POINT       1448   84     240/ 12/ 17 1017.3F
LEWISETTA        1448   84 84  220/ 11/ 14 1017.1F
SOLOMONS ISLAND  1448   84 82  210/ 12/ 14   N/A
PINEY POINT      1448          240/  9/ 12   N/A

$$





USA.gov is the U.S. government's official web portal to all federal, state and local government web resources and services.